Regional Weather Roundup
Issued by NWS

Home | Current Version | Previous Version | Graphics & Text | Print | Product List | Glossary On
Versions: 1 2 3 4 5 6 7 8 9 10 11 12 13 14 15 16 17 18 19 20 21 22 23 24 25 26 27 28 29 30 31 32 33 34 35 36 37 38 39 40 41 42 43 44 45 46 47 48 49 50
000
ASUS43 KLMK 242202
RWRKY
KENTUCKY REGIONAL WEATHER ROUNDUP
NATIONAL WEATHER SERVICE LOUISVILLE KY
600 PM EDT THU JUL 24 2014

NOTE "FAIR" INDICATES FEW OR NO CLOUDS BELOW 12,000 FEET
WITH NO SIGNIFICANT WEATHER AND/OR OBSTRUCTIONS TO VISIBILITY.

KYZ001>023-026-027-061>063-070>075-242300-
WESTERN AND SOUTH CENTRAL KENTUCKY

CITY           SKY/WX    TMP DP  RH WIND       PRES   REMARKS
PADUCAH        MOSUNNY   81  59  47 N13       30.02F
HENDERSON      PTSUNNY   79  55  44 N9        30.02F
OWENSBORO      MOSUNNY   79  55  43 NE8       30.02F
HOPKINSVILLE   SUNNY     81  58  45 N10       30.00F
BOWLING GREEN  SUNNY     80  55  42 N8        30.00F
GLASGOW        MOSUNNY   81  55  40 NE6       30.00F
$$

KYZ024-025-028>034-038-045-046-053-242300-
NORTH CENTRAL KENTUCKY

CITY           SKY/WX    TMP DP  RH WIND       PRES   REMARKS
LOUISVILLE/SDF MOSUNNY   80  53  39 N12       30.02F
LOUISVILLE/LOU PTSUNNY   76  53  44 NE8       30.03F
FORT KNOX      PTSUNNY   77  57  48 NE7       30.02F
$$

KYZ035>037-039>044-047>052-055>060-089>105-242300-
NORTHEAST KENTUCKY

CITY           SKY/WX    TMP DP  RH WIND       PRES   REMARKS
LEXINGTON      PTSUNNY   77  56  48 NE12G17   30.03F
COVINGTON      MOSUNNY   75  51  43 N10G18    30.03F
FRANKFORT      MOSUNNY   75  53  46 N7        30.02F
$$

KYZ054-064>069-076>088-106>120-242300-
SOUTHEAST KENTUCKY

CITY           SKY/WX    TMP DP  RH WIND       PRES   REMARKS
JACKSON        CLOUDY    67  61  81 VRB3      30.05R
LONDON         CLOUDY    71  61  70 NE7       30.05R
SOMERSET       CLOUDY    73  61  64 NE6       30.04S
MIDDLESBORO    CLOUDY    70  65  84 N8        30.02R
MONTICELLO     PTCLDY    75  64  68 N9        30.04S
$$



USA.gov is the U.S. government's official web portal to all federal, state and local government web resources and services.